[[{"header":{"parameterUnit":"m.s-1","parameterCategory":1,"la1":30.2992,"la2":30.254,"lo1":-89.0895,"lo2":-89.0443,"dy":0.0025,"dx":0.0025,"nx":19,"ny":19,"refTime":"2026-05-06T09:00:00:Z","depth":0,"parameterNumber":2,"parameterNumberName":"U-component_of_WINDS"},"data":[0,0,0,-1.269,-1.2691,-1.2773,-1.2773,-1.2876,-1.2877,0,0,0,0,0,0,0,0,0,0,0,-1.2664,-1.2664,-1.2689,-1.2691,-1.2773,-1.2773,-1.2876,-1.2877,0,0,0,0,0,0,0,0,0,0,0,-1.2663,-1.2664,-1.2665,-1.2692,-1.2772,-1.2773,-1.2876,-1.2815,0,0,0,0,0,0,0,0,0,0,-1.2736,-1.2711,-1.2664,-1.2665,-1.2692,-1.2772,-1.2773,-1.2812,-1.2819,-1.2839,0,-1.2855,0,-1.2868,-1.2884,-1.2884,0,0,0,-1.2693,-1.2705,-1.2728,-1.2665,-1.2693,-1.2772,-1.2736,-1.2816,-1.2824,-1.2848,-1.2856,-1.286,-1.2869,-1.2885,-1.2885,-1.2992,-1.2992,0,0,-1.2689,-1.2678,-1.2723,-1.2733,-1.2719,-1.2734,-1.2739,-1.2821,-1.283,-1.2857,-1.2863,-1.2871,-1.2885,-1.2886,-1.2991,-1.2992,0,0,0,-1.2674,-1.2674,-1.2696,-1.2729,-1.2743,-1.2736,-1.2742,-1.2826,-1.2834,-1.2864,-1.2872,-1.2886,-1.2887,-1.2991,-1.2992,-1.3001,0,0,0,-1.2672,-1.2666,-1.2694,-1.2688,-1.2742,-1.2785,-1.2746,-1.2828,-1.2838,-1.2872,-1.2886,-1.2888,-1.2991,-1.2991,-1.3,-1.3008,0,0,0,-1.2659,-1.2665,-1.2676,-1.2687,-1.2722,-1.2784,-1.2797,-1.2831,-1.2843,-1.2884,-1.2888,-1.299,-1.2991,-1.2999,-1.3006,-1.3033,0,0,0,-1.2642,-1.2684,-1.2676,-1.2725,-1.2721,-1.2789,-1.2797,-1.2849,-1.2885,-1.2886,-1.2991,-1.2992,-1.2999,-1.3005,-1.3032,-1.3053,-1.3061,0,0,-1.2689,-1.2689,-1.2719,-1.2714,-1.2781,-1.2778,-1.2847,-1.2892,-1.2906,-1.2963,-1.2966,-1.3001,-1.3006,-1.3033,-1.311,-1.3116,0,0,0,-1.273,-1.2751,-1.2772,-1.2805,-1.284,-1.287,-1.2905,-1.2922,-1.2971,-1.2933,-1.3018,-1.3022,-1.3038,-1.3049,-1.3054,-1.3069,-1.2996,-1.2996,-1.2996,-1.278,-1.2795,-1.2846,-1.2872,-1.2905,-1.2941,-1.297,-1.2999,-1.3005,-1.3025,-1.3042,-1.3087,-1.3099,-1.3103,-1.3118,-1.3055,-1.3055,-1.3055,-1.3055,-1.2849,-1.2882,-1.289,-1.2942,-1.2959,-1.3004,-1.304,-1.3044,-1.3088,-1.3075,-1.309,-1.3074,-1.3109,-1.3124,-1.3056,-1.3056,-1.3056,-1.3055,-1.3055,-1.2883,-1.2902,-1.2921,-1.2972,-1.301,-1.3035,-1.3078,-1.3092,-1.3106,-1.3121,-1.314,-1.314,-1.3142,-1.3129,-1.3129,-1.3129,-1.313,-1.313,-1.313,-1.2911,-1.2932,-1.2966,-1.3006,-1.303,-1.3064,-1.3101,-1.3125,-1.3156,-1.3163,-1.3164,-1.3169,-1.311,-1.3094,-1.3132,-1.3132,-1.3132,-1.3131,-1.3131,-1.2976,-1.2964,-1.3015,-1.3039,-1.3088,-1.3125,-1.3143,-1.3192,-1.3214,-1.3235,-1.3237,-1.3191,-1.3193,-1.3189,-1.3176,-1.3233,-1.3233,-1.3233,-1.3233,-1.3005,-1.3007,-1.3063,-1.3101,-1.3139,-1.316,-1.322,-1.325,-1.3279,-1.3294,-1.3288,-1.3273,-1.3268,-1.3272,-1.3267,-1.3255,-1.3331,-1.3331,-1.3331,-1.3046,-1.3052,-1.3099,-1.3126,-1.3166,-1.32,-1.3256,-1.33,-1.3331,-1.3335,-1.3306,-1.3302,-1.3278,-1.3269,-1.3272,-1.3263,-1.3242,0,0]},{"header":{"parameterUnit":"m.s-1","parameterCategory":1,"la1":30.2992,"la2":30.254,"lo1":-89.0895,"lo2":-89.0443,"dy":0.0025,"dx":0.0025,"nx":19,"ny":19,"refTime":"2026-05-06T09:00:00:Z","depth":0,"parameterNumber":3,"parameterNumberName":"V-component_of_WINDS"},"data":[0,0,0,5.7419,5.7421,5.7505,5.7505,5.7623,5.7624,0,0,0,0,0,0,0,0,0,0,0,5.7403,5.7404,5.7419,5.7421,5.7505,5.7505,5.7623,5.7624,0,0,0,0,0,0,0,0,0,0,0,5.7403,5.7404,5.7405,5.7421,5.7505,5.7505,5.7622,5.7555,0,0,0,0,0,0,0,0,0,0,5.7471,5.7466,5.7404,5.7405,5.7422,5.7505,5.7505,5.7551,5.7559,5.759,0,5.7623,0,5.7625,5.7633,5.7633,0,0,0,5.7414,5.746,5.7474,5.7406,5.7423,5.7505,5.7465,5.7555,5.7564,5.76,5.7624,5.7628,5.7627,5.7634,5.7634,5.7844,5.7845,0,0,5.7409,5.7423,5.7469,5.7481,5.7472,5.7462,5.7468,5.756,5.7586,5.7625,5.7631,5.7629,5.7634,5.7635,5.7843,5.7844,0,0,0,5.7401,5.742,5.7432,5.7476,5.7491,5.7465,5.7471,5.7582,5.7585,5.7632,5.7631,5.7635,5.7637,5.7841,5.7843,5.7922,0,0,0,5.7397,5.7415,5.743,5.7439,5.7489,5.7538,5.7491,5.7579,5.7589,5.763,5.7635,5.7638,5.784,5.7842,5.7917,5.7956,0,0,0,5.7394,5.7414,5.743,5.744,5.7477,5.7536,5.7545,5.7581,5.7589,5.7633,5.7638,5.7839,5.7842,5.7912,5.7948,5.8014,0,0,0,5.7394,5.7499,5.7431,5.7547,5.7476,5.7586,5.7544,5.7624,5.7672,5.7636,5.784,5.7843,5.791,5.7944,5.8009,5.8071,5.8098,0,0,5.7533,5.7516,5.7583,5.7525,5.7651,5.7572,5.7708,5.7738,5.7728,5.7805,5.781,5.7918,5.7948,5.8013,5.8251,5.8273,0,0,0,5.7631,5.768,5.771,5.7757,5.7784,5.7809,5.7817,5.7828,5.7892,5.7772,5.796,5.7977,5.8015,5.8043,5.8062,5.8092,5.7857,5.7857,5.7857,5.7847,5.7831,5.7939,5.7933,5.7979,5.7986,5.8021,5.8036,5.8005,5.805,5.8072,5.8219,5.8253,5.8267,5.8299,5.8105,5.8105,5.8105,5.8106,5.8047,5.8112,5.8069,5.8159,5.814,5.8215,5.8224,5.82,5.8265,5.8201,5.8233,5.8164,5.8292,5.8319,5.8111,5.811,5.811,5.8109,5.8109,5.8185,5.8213,5.8226,5.8291,5.8342,5.8331,5.8395,5.8376,5.8357,5.8389,5.8409,5.8407,5.8402,5.84,5.8401,5.8401,5.8402,5.8402,5.8403,5.8323,5.8334,5.8392,5.8428,5.8455,5.8487,5.8494,5.8519,5.854,5.8521,5.8521,5.8484,5.8309,5.8264,5.841,5.8409,5.8408,5.8407,5.8407,5.8529,5.8479,5.8568,5.8595,5.8634,5.8685,5.866,5.8711,5.8729,5.876,5.8717,5.8591,5.8571,5.8556,5.8518,5.8722,5.8722,5.8722,5.8722,5.8644,5.8633,5.8718,5.8761,5.8802,5.8787,5.8884,5.889,5.8888,5.8897,5.8865,5.8814,5.8799,5.8788,5.8767,5.8732,5.8985,5.8986,5.8986,5.8769,5.876,5.8848,5.8847,5.8876,5.89,5.899,5.9039,5.9026,5.8996,5.8903,5.8891,5.8809,5.8784,5.875,5.872,5.8654,0,0]}]]